Weather in Nesebar

Bulgaria     42°39′37″N   27°42′58″E
temp.,
°C
wind,
m/s
gust,
m/s
humid.,
%
clouds,
%
prec.,
mm/h
press.,
hPa
HPBL,
m
25 february, thu
thu2523:00+3n23941 0.0 103787
02:00+3nnw22921 0.0 103646
05:00+3n129166 0.0 103551
08:00+4wsw118779 0.0 103632
11:00+9w116555 0.0 1036399
14:00+10se226741 0.0 1034399
17:00+9s22751 0.0 1033125
20:00+6sw11831 0.0 103323
26 february, fri
fri2623:00+6sw12860 0.0 103324
02:00+6wsw12880 0.0 103223
05:00+6w12890 0.0 103124
08:00+7wsw12870 0.0 103030
11:00+12ssw22690 0.0 1030294
14:00+14s22640 0.0 1027435
17:00+11s23780 0.0 1026126
20:00+8s22850 0.0 102533
27 february, sat
sat2723:00+7ssw22850 0.0 102428
02:00+7wsw12850 0.0 102222
05:00+7wsw22880 0.0 102025
08:00+8w22860 0.0 102035
11:00+15wnw24580 0.0 1019573
14:00+16nnw46520 0.0 10181256
17:00+13nne79687 0.1 1018439
20:00+8ne7128946 0.2 1020567
28 february, sun
sun2823:00+6nne71189100 0.4 1023654
02:00+6n597699 1.3 1025841
05:00+5n5974100 0.0 1025674
08:00+4n497863 0.0 1026612
11:00+7nne69600 0.0 10271277
14:00+8nne585618 0.0 10281495
17:00+7nne696090 0.1 10281389
20:00+5nne487189 0.1 1030607
1 march, mon
mon123:00+3n37756 0.0 1031316
02:00+2nnw367914 0.0 1031208
05:00+2nnw36807 0.0 1031186
08:00+2nnw377737 0.0 1031482
11:00+5n456693 0.0 1032812
14:00+6n356496 0.1 10311156
17:00+6n575897 0.1 10311429
20:00+4nne377089 0.1 1032442